This demonstration page uses our WeatherBlox Daily Observations layout. Learn more.

Left ArrowRight Arrow

40.97296, -117.73568

Hourly Observations for August 17, 2015

Temp ( °F °C ) Dew Point ( °F °C ) Humidity (%) Winds ( mph kmh ) Pressure ( in mb ) Visibility ( mi km ) Precip ( " mm )
12:56 am 00:56 Clear 65 18.3 22 -5.6 19 19 Calm 29.91 1013 10 16 0.00 0.00
1:56 am 01:56 Clear 59 15 27 -2.8 29 29 Calm 29.92 1013 10 16 0.00 0.00
2:56 am 02:56 Clear 60 15.6 26 -3.3 27 27 NW 5 7 29.92 1013 10 16 0.00 0.00
3:56 am 03:56 Clear 60 15.6 29 -1.7 31 31 VRB 3 6 29.93 1013 10 16 0.00 0.00
4:56 am 04:56 Clear 46 7.8 28 -2.2 50 50 SE 7 11 29.94 1014 10 16 0.00 0.00
5:56 am 05:56 Clear 47 8.3 24 -4.4 41 41 SE 8 13 29.96 1015 10 16 0.00 0.00
6:56 am 06:56 Sunny 49 9.4 25 -3.9 39 39 SE 6 9 29.97 1015 10 16 0.00 0.00
7:56 am 07:56 Sunny 60 15.6 27 -2.8 28 28 N 3 6 29.99 1016 10 16 0.00 0.00
8:56 am 08:56 Sunny 69 20.6 31 -0.6 24 24 Calm 29.99 1016 10 16 0.00 0.00
9:56 am 09:56 Sunny 77 25 32 0 19 19 Calm 29.98 1015 10 16 0.00 0.00
10:56 am 10:56 Sunny 82 27.8 31 -0.6 16 16 VRB 3 6 29.98 1015 10 16 0.00 0.00
11:22 am 11:22 Sunny with Nearby Thunderstorms 84 29 28 -2 13 13 WNW 7 11 29.74 1007 10 16 0.00 0.00
11:37 am 11:37 Sunny 87 30.6 28 -2.2 12 12 NW 9 15 29.71 1006 10 16 0.00 0.00
11:56 am 11:56 Sunny 86 30 27 -2.8 12 12 VRB 7 11 29.96 1014 10 16 0.00 0.00
12:56 pm 12:56 Sunny 89 31.7 27 -2.8 11 11 NNW 7 11 29.92 1013 10 16 0.00 0.00
1:56 pm 13:56 Sunny 88 31.1 25 -3.9 10 10 Calm 29.91 1013 10 16 0.00 0.00
2:56 pm 14:56 Sunny 92 33.3 20 -6.7 7 7 VRB 7 11 29.88 1012 10 16 0.00 0.00
3:56 pm 15:56 Sunny 93 33.9 22 -5.6 7 7 NNW 13 20 29.86 1011 10 16 0.00 0.00
4:56 pm 16:56 Sunny 92 33.3 22 -5.6 8 8 W 9 15 29.88 1012 10 16 0.00 0.00
5:56 pm 17:56 Sunny 91 32.8 20 -6.7 7 7 W 14 22 29.88 1012 10 16 0.00 0.00
6:56 pm 18:56 Sunny 89 31.7 23 -5 9 9 NNW 7 11 29.88 1012 10 16 0.00 0.00
7:56 pm 19:56 Clear 81 27.2 26 -3.3 13 13 NNE 5 7 29.88 1012 10 16 0.00 0.00
8:56 pm 20:56 Clear 71 21.7 24 -4.4 17 17 Calm 29.90 1013 9 14 0.00 0.00
9:56 pm 21:56 Clear 63 17.2 22 -5.6 21 21 W 5 7 29.92 1013 10 16 0.00 0.00
10:56 pm 22:56 Clear 57 13.9 21 -6.1 25 25 WNW 3 6 29.93 1014 9 14 0.00 0.00
11:56 pm 23:56 Clear 60 15.6 22 -5.6 23 23 NW 9 15 29.93 1014 10 16 0.00 0.00

Powered by AerisWeather